This is the latest recevied weather packets stored in our database for station/object YO2KCB-10. If no packets are shown the sender has not sent any weather packets the latest 10 day(s).
| Time | Temp. | Humidity | Pressure | Rain* | Wind** | Luminosity | Snow |
|---|---|---|---|---|---|---|---|
| 1777423697 | 12.22° C | 26% | 1017 hPa | - | - | - | - |
| 1777422497 | 12.78° C | 26% | 1017.1 hPa | - | - | - | - |
| 1777421297 | 12.78° C | 26% | 1017 hPa | - | - | - | - |
| 1777420097 | 12.78° C | 26% | 1017.1 hPa | - | - | - | - |
| 1777418896 | 13.33° C | 25% | 1017.1 hPa | - | - | - | - |
| 1777417696 | 13.33° C | 26% | 1017.1 hPa | - | - | - | - |
| 1777416496 | 13.89° C | 25% | 1017.4 hPa | - | - | - | - |
| 1777415296 | 13.89° C | 25% | 1017.6 hPa | - | - | - | - |
| 1777414095 | 14.44° C | 25% | 1017.5 hPa | - | - | - | - |
| 1777412895 | 14.44° C | 25% | 1017.4 hPa | - | - | - | - |
| 1777411695 | 15° C | 25% | 1017.4 hPa | - | - | - | - |
| 1777410494 | 15° C | 25% | 1017.4 hPa | - | - | - | - |
| 1777409683 | 15° C | 25% | 1017.4 hPa | - | - | - | - |
| 1777408483 | 15.56° C | 25% | 1017.2 hPa | - | - | - | - |
| 1777407282 | 16.11° C | 25% | 1017.2 hPa | - | - | - | - |
| 1777406082 | 16.67° C | 25% | 1017 hPa | - | - | - | - |
| 1777404882 | 16.67° C | 24% | 1016.8 hPa | - | - | - | - |
| 1777403682 | 17.22° C | 25% | 1016.7 hPa | - | - | - | - |
| 1777402482 | 17.78° C | 24% | 1017 hPa | - | - | - | - |
| 1777401282 | 17.78° C | 24% | 1016.7 hPa | - | - | - | - |
| 1777400081 | 18.33° C | 24% | 1016.9 hPa | - | - | - | - |
| 1777398881 | 18.89° C | 23% | 1016.8 hPa | - | - | - | - |
| 1777397681 | 19.44° C | 23% | 1016.7 hPa | - | - | - | - |
| 1777396480 | 20° C | 22% | 1016.7 hPa | - | - | - | - |
| 1777395280 | 21.11° C | 22% | 1016.5 hPa | - | - | - | - |
* Rain since midnight (hover to see other rain measurements)
** Current wind speed in m/s (hover to see current wind gust speed)